Weather in Ronov nad Doubravou

Czech Republic     49°53′17″N   15°31′55″E
temp.,
°C
wind,
m/s
gust,
m/s
humid.,
%
clouds,
%
prec.,
mm/h
press.,
hPa
HPBL,
m
13 april, tue
tue1323:000nw51197100 2.9 1028684
02:00+1w149986 3.5 1028170
05:000sw1197100 0.0 102816
08:00+2wnw1394100 0.1 1028210
11:00+4nnw5677100 0.0 10281052
14:00+6nnw6758100 0.3 10271701
17:00+6n5758100 0.1 10261668
20:00+4nnw41069100 0.2 1026298
14 april, wed
wed1423:00+2wnw3878100 0.1 1027212
02:00+1wnw31082100 0.1 1026271
05:00+1nw41083100 0.0 1026329
08:00+2nw5981100 0.0 1027535
11:00+4nw6856100 0.0 10271403
14:00+7nnw7844100 0.0 10252260
17:00+7n6842100 0.0 10242053
20:00+3nw3460100 0.1 102560
15 april, thu
thu1523:00+1wnw2369100 0.0 102559
02:000w2379100 0.0 102554
05:00−1w2484100 0.0 102581
08:00+2wnw5973100 0.0 1025457
11:00+5nw6758100 0.0 10251511
14:00+5nnw7857100 0.1 10241578
17:00+4nnw7965100 0.1 10241218
20:00+2wnw5988100 0.2 1024697
16 april, fri
fri1623:00+1w5998100 0.3 1023441
02:00+1w4898100 0.7 1023352
05:00+1w3699100 0.3 1023257
08:00+1wnw3596100 0.4 1023424
11:00+2wnw3493100 0.1 1023463
14:00+3nw3497100 0.3 1023308
17:00+3nw2298100 0.1 1023313
20:00+3nw1299100 0.1 1023406
17 april, sat
sat1723:00+3w1299100 0.1 1023298
02:00+3wnw2399100 0.3 1022274
05:00+3wnw2399100 0.0 1022228
08:00+3nw2297100 0.0 1022187
11:00+5nnw2390100 0.0 1022583
14:00+9n2371100 0.1 10201028
17:00+7n3680100 0.2 1019382
20:00+5ne4889100 0.3 1020280